Change the Weather History Date:

Friday, August 30, 2013

  Actual Average Record
Temperature  
Mean Temperature 86 °F -  
Max Temperature 98 °F 99 °F 111 °F (2011)
Min Temperature 75 °F 77 °F 75 °F (2004)
Cooling Degree Days 22    
Growing Degree Days 36 (Base 50)    
Moisture  
Dew Point 69 °F    
Average Humidity 65    
Maximum Humidity 94    
Minimum Humidity 30    
Precipitation  
Precipitation 0.14 in - - ()
Sea Level Pressure  
Sea Level Pressure 30.02 in    
Wind  
Wind Speed 5 mph (ESE)    
Max Wind Speed 17 mph    
Max Gust Speed 28 mph    
Visibility 11 miles    
Events Rain , Thunderstorm    
Averages and records for this station are not official NWS values.
T = Trace of Precipitation, MM = Missing Value Source: NWS Daily Summary

Daily Weather History Graph

Daily Weather History Graph

Search for Another Location

Airport or City:

Trip Planner

Search our weather history database for the weather conditions in past years. The results will help you decide how hot, cold, wet, or windy it might be!

Date:

Astronomy

Aug. 30, 2013 Rise Set
Actual Time 5:59 AM MST 6:53 PM MST
Civil Twilight 5:34 AM MST 7:19 PM MST
Nautical Twilight 5:04 AM MST 7:49 PM MST
Astronomical Twilight 4:33 AM MST 8:20 PM MST
Moon 12:50 AM MST (8/30) 3:03 PM MST (8/30)
Length of Visible Light 13h 44m
Length of Day
12h 54m
Waning Crescent, 28% of the Moon is Illuminated
Aug 30
Waning Crescent
Sep 5
New
Sep 12
First Quarter
Sep 19
Full
Sep 26
Last Quarter

Hourly Weather History & Observations

Time (MST) Temp. Heat Index Dew Point Humidity Pressure Visibility Wind Dir Wind Speed Gust Speed Precip Events Conditions
12:15 AM 82.4 °F 83.9 °F 64.4 °F 54% 30.07 in 10.0 mi NW 5.8 mph - N/A   Clear
12:35 AM 82.4 °F 83.9 °F 64.4 °F 54% 30.06 in 10.0 mi NNW 4.6 mph - N/A   Clear
12:55 AM 82.4 °F 84.6 °F 66.2 °F 58% 30.06 in 10.0 mi NW 4.6 mph - N/A   Clear
1:15 AM 82.4 °F 84.6 °F 66.2 °F 58% 30.06 in 10.0 mi NW 4.6 mph - N/A   Clear
1:35 AM 82.4 °F 84.6 °F 66.2 °F 58% 30.05 in 10.0 mi NW 3.5 mph - N/A   Clear
1:55 AM 82.4 °F 85.4 °F 68.0 °F 62% 30.05 in 10.0 mi NNW 5.8 mph - N/A   Clear
2:15 AM 82.4 °F 85.4 °F 68.0 °F 62% 30.04 in 10.0 mi NW 5.8 mph - N/A   Clear
2:35 AM 82.4 °F 85.4 °F 68.0 °F 62% 30.04 in 10.0 mi NW 6.9 mph - N/A   Clear
2:55 AM 82.4 °F 85.4 °F 68.0 °F 62% 30.04 in 10.0 mi NNW 4.6 mph - N/A   Clear
3:15 AM 82.4 °F 85.4 °F 68.0 °F 62% 30.03 in 10.0 mi NW 3.5 mph - N/A   Clear
3:35 AM 82.4 °F 85.4 °F 68.0 °F 62% 30.03 in 10.0 mi Calm Calm - N/A   Clear
3:55 AM 82.4 °F 85.4 °F 68.0 °F 62% 30.03 in 10.0 mi Calm Calm - N/A   Clear
4:15 AM 82.4 °F 85.4 °F 68.0 °F 62% 30.02 in 10.0 mi Calm Calm - N/A   Clear
4:35 AM 82.4 °F 86.3 °F 69.8 °F 66% 30.03 in 10.0 mi Calm Calm - N/A   Clear
4:47 AM 84.2 °F 88.4 °F 69.8 °F 62% 30.03 in 20.0 mi Variable 4.6 mph - N/A   Mostly Cloudy
4:55 AM 80.6 °F 83.2 °F 68.0 °F 65% 30.04 in 10.0 mi SSW 4.6 mph - N/A   Clear
5:15 AM 80.6 °F 82.7 °F 66.2 °F 61% 30.04 in 10.0 mi South 4.6 mph - N/A   Clear
5:35 AM 82.4 °F 85.4 °F 68.0 °F 62% 30.05 in 10.0 mi SSW 3.5 mph - N/A   Clear
5:47 AM 82.4 °F 84.6 °F 66.2 °F 58% 30.05 in 20.0 mi ESE 4.6 mph - N/A   Overcast
5:53 AM 77.0 °F - 75.2 °F 94% 30.00 in 15.0 mi Calm Calm - N/A   Clear
6:47 AM 82.4 °F 85.4 °F 68.0 °F 62% 30.06 in 45.0 mi SSE 4.6 mph - N/A   Overcast
7:47 AM 84.2 °F 88.4 °F 69.8 °F 62% 30.07 in 45.0 mi SSE 5.8 mph - N/A   Mostly Cloudy
8:47 AM 84.2 °F 87.3 °F 68.0 °F 58% 30.07 in 45.0 mi SSE 6.9 mph - N/A   Mostly Cloudy
9:47 AM 86.0 °F 88.2 °F 66.2 °F 51% 30.07 in 35.0 mi SSE 5.8 mph - N/A   Mostly Cloudy
10:47 AM 91.4 °F 95.4 °F 68.0 °F 46% 30.06 in 30.0 mi Variable 5.8 mph - N/A   Mostly Cloudy
11:47 AM 93.2 °F 96.2 °F 66.2 °F 41% 30.05 in 30.0 mi West 5.8 mph - N/A   Mostly Cloudy
12:47 PM 93.2 °F 94.9 °F 64.4 °F 38% 30.02 in 30.0 mi West 5.8 mph - N/A   Mostly Cloudy
1:47 PM 96.8 °F 98.0 °F 62.6 °F 32% 29.99 in 30.0 mi Variable 3.5 mph - N/A   Mostly Cloudy
2:47 PM 98.6 °F 100.0 °F 62.6 °F 30% 29.96 in 30.0 mi Variable 6.9 mph - N/A   Mostly Cloudy
3:47 PM 98.6 °F 101.0 °F 64.4 °F 32% 29.94 in 30.0 mi WSW 9.2 mph - N/A   Mostly Cloudy
4:47 PM 98.6 °F 101.0 °F 64.4 °F 32% 29.93 in 30.0 mi West 11.5 mph - N/A   Mostly Cloudy
5:05 PM 95.0 °F 97.0 °F 64.4 °F 36% 29.94 in 30.0 mi West 11.5 mph - N/A Thunderstorm Thunderstorm
5:47 PM 89.6 °F 91.1 °F 64.4 °F 43% 29.97 in 10.0 mi NNE 17.3 mph 27.6 mph N/A   Widespread Dust
6:20 PM 80.6 °F 83.2 °F 68.0 °F 65% 30.04 in 2.0 mi East 11.5 mph 25.3 mph N/A Rain Rain
6:35 PM 75.2 °F - 71.6 °F 89% 30.01 in 10.0 mi East 9.2 mph - N/A   Overcast
6:55 PM 78.8 °F - 73.4 °F 83% 30.01 in 20.0 mi South 10.4 mph - N/A   Overcast
7:47 PM 78.8 °F - 73.4 °F 83% 30.01 in 10.0 mi East 10.4 mph - N/A Rain Light Rain
7:55 PM 78.8 °F - 71.6 °F 78% 30.02 in 10.0 mi ENE 9.2 mph - 0.04 in Rain Rain
8:15 PM 78.8 °F - 73.4 °F 83% 30.02 in 10.0 mi East 10.4 mph - 0.03 in Rain Rain
8:35 PM 78.8 °F - 73.4 °F 83% 30.02 in 10.0 mi East 10.4 mph - 0.06 in Rain Rain
8:47 PM 78.8 °F - 73.4 °F 83% 30.02 in 10.0 mi East 9.2 mph - N/A Rain Light Rain
8:55 PM 78.8 °F - 73.4 °F 83% 30.02 in 10.0 mi East 9.2 mph - 0.07 in Rain Light Rain
9:15 PM 78.8 °F - 71.6 °F 78% 30.01 in 10.0 mi East 8.1 mph - 0.01 in Rain Light Rain
9:35 PM 78.8 °F - 73.4 °F 83% 30.01 in 10.0 mi SE 5.8 mph - 0.02 in Rain Light Rain
9:47 PM 78.8 °F - 73.4 °F 83% 30.00 in 10.0 mi ESE 6.9 mph - N/A Rain Light Rain
9:55 PM 78.8 °F - 73.4 °F 83% 30.00 in 10.0 mi SSE 4.6 mph - 0.02 in Rain Light Rain
10:15 PM 78.8 °F - 73.4 °F 83% 30.00 in 10.0 mi ESE 3.5 mph - 0.01 in Rain Light Rain
10:35 PM 78.8 °F - 73.4 °F 83% 30.00 in 10.0 mi ESE 3.5 mph - 0.01 in   Light Drizzle
10:47 PM 78.8 °F - 73.4 °F 83% 30.00 in 20.0 mi East 5.8 mph - N/A   Mostly Cloudy
10:55 PM 78.8 °F - 73.4 °F 83% 30.00 in 10.0 mi Calm Calm - 0.01 in   Clear
11:15 PM 78.8 °F - 73.4 °F 83% 30.00 in 10.0 mi Calm Calm - N/A   Clear
11:35 PM 78.8 °F - 73.4 °F 83% 30.00 in 10.0 mi Calm Calm - N/A   Clear
11:47 PM 78.8 °F - 73.4 °F 83% 30.00 in 20.0 mi Calm Calm - N/A   Mostly Cloudy
11:55 PM 78.8 °F - 71.6 °F 78% 30.00 in 10.0 mi Calm Calm - N/A   Clear